[Date Prev][Date Next][Thread Prev][Thread Next] - [Date Index][Thread Index][Author Index]
2 Line ISS Keps 11-19
- Subject: [sarex] 2 Line ISS Keps 11-19
- From: "Dave Larsen PhD" <doc@xxxxxxxxxxx>
- Date: Fri, 19 Nov 2004 01:17:53 -0800
ISS
1 25544U 98067A 04324.23384662 .00019062 00000-0 15802-3 0 1761
2 25544 51.6387 254.5086 0004535 22.8347 68.1533 15.70246523342678
----
Via the sarex mailing list at AMSAT.ORG courtesy of AMSAT-NA.
To unsubscribe, send "unsubscribe sarex" to Majordomo@amsat.org
AMSAT Home